Hourly Data Report for October 28, 2016

All times are specified in Local Standard Time (LST). Add 1 hour to adjust for Daylight Saving Time where and when it is observed.

TORONTO INTL A
ONTARIO

43°40'36.000" N
79°37'50.000" W
173.40 m
6158731
71624
YYZ

Download Data

Hourly Data (October 2016)
Hourly Data Report for October 28, 2016
Temp Definition
°C
Dew Point Temp Definition
°C
Rel Hum Definition
%
Wind Dir Definition
10's deg

Wind Spd Definition
km/h
Visibility Definition
km
Stn Press Definition
kPa
Hmdx Definition


Wind Chill Definition


Weather Definition


TIME
00:00 Legend Double Dagger 1.6 -0.8 84 30 13 24.1 100.00     LegendNANA
01:00 Legend Double Dagger 2.0 -0.4 84 32 13 24.1 100.03     Mostly Cloudy
02:00 Legend Double Dagger 1.1 -0.7 88 32 8 24.1 100.09     LegendNANA
03:00 Legend Double Dagger 1.2 -0.9 86 33 8 24.1 100.12     LegendNANA
04:00 Legend Double Dagger 1.1 -1.1 85 30 14 24.1 100.17     Clear
05:00 Legend Double Dagger 0.6 -1.5 86 29 13 24.1 100.25     LegendNANA
06:00 Legend Double Dagger 1.6 -1.5 80 32 19 24.1 100.31     LegendNANA
07:00 Legend Double Dagger 1.0 -1.4 84 34 9 24.1 100.37     Mostly Cloudy
08:00 Legend Double Dagger 1.4 -1.8 79 30 10 24.1 100.46     LegendNANA
09:00 Legend Double Dagger 2.9 -0.7 77 36 14 24.1 100.46     LegendNANA
10:00 Legend Double Dagger 4.3 -0.7 70 34 11 24.1 100.48     Mostly Cloudy
11:00 Legend Double Dagger 6.2 -1.4 58 32 14 24.1 100.43     LegendNANA
12:00 Legend Double Dagger 7.3 -1.4 54 32 11 24.1 100.37     LegendNANA
13:00 Legend Double Dagger 8.8 -0.2 53 26 13 24.1 100.30     Mostly Cloudy
14:00 Legend Double Dagger 9.7 -0.5 49 24 9 24.1 100.23     LegendNANA
15:00 Legend Double Dagger 9.3 1.7 59 12 11 24.1 100.22     LegendNANA
16:00 Legend Double Dagger 10.3 2.0 56 15 7 24.1 100.18     Mostly Cloudy
17:00 Legend Double Dagger 9.1 1.5 59 18 10 24.1 100.14     LegendNANA
18:00 Legend Double Dagger 8.3 1.5 62 17 11 24.1 100.10     LegendNANA
19:00 Legend Double Dagger 7.8 2.9 71 19 11 24.1 100.06     Mostly Cloudy
20:00 Legend Double Dagger 8.1 2.8 69 20 12 24.1 99.98     LegendNANA
21:00 Legend Double Dagger 7.9 3.2 72 17 10 24.1 99.87     LegendNANA
22:00 Legend Double Dagger 8.3 4.2 75 17 12 24.1 99.80     Cloudy
23:00 Legend Double Dagger 8.4 5.4 81 15 7 24.1 99.73     LegendNANA

Notes on Data Quality.

Legend

  • E = Estimated
  • M = Missing
  • NA = Not Available
  • ‡ = Partner data that is not subject to review by the National Climate Archives
Date modified: